JH1CWL-13 Weather Reports


time (UTC)temp
C
wind
direction
speed
KPH
gust
KPH
rain 1hr
cm
rain 24hr
cm
rain mn
cm
humidity
%
barometer
mb
20260504081525 20 233 12.9 27.4 0.00 0.41 0.36 66 996.2
20260504045526 22 248 19.3 32.2 0.00 0.41 0.36 70 995.9
20260504043525 22 250 19.3 27.4 0.00 0.41 0.36 70 995.9
20260504041525 22 273 12.9 29.0 0.00 0.41 0.36 70 996.1
20260504035524 22 248 9.7 30.6 0.00 0.41 0.36 70 996.5
20260504033525 23 232 14.5 25.7 0.00 0.41 0.36 69 996.6
20260504031526 23 255 9.7 24.1 0.00 0.41 0.36 69 996.5
20260504025525 23 262 9.7 24.1 0.00 0.41 0.36 72 997.0
20260504023525 23 239 8.0 20.9 0.00 0.41 0.36 74 997.2
20260504021526 22 228 14.5 29.0 0.00 0.41 0.36 74 997.1
20260504015525 22 236 9.7 33.8 0.00 0.41 0.36 75 997.0
20260504013524 22 286 19.3 30.6 0.00 0.41 0.36 76 997.2
20260504011525 22 258 11.3 30.6 0.00 0.41 0.36 76 997.2
20260504005524 22 258 8.0 33.8 0.00 0.41 0.36 81 997.2
20260504003525 21 253 16.1 30.6 0.00 0.41 0.36 88 997.1
20260504001525 20 260 14.5 24.1 0.00 0.41 0.36 91 997.2
20260503235525 20 242 16.1 25.7 0.00 0.41 0.36 92 997.1
20260503233525 20 259 11.3 27.4 0.00 0.41 0.36 92 997.1
20260503231526 21 251 12.9 24.1 0.00 0.41 0.36 91 997.8
20260503225525 21 220 14.5 35.4 0.00 0.41 0.36 92 997.5
20260503223525 21 241 12.9 45.1 0.00 0.41 0.36 92 997.4
20260503221525 21 280 17.7 30.6 0.00 0.41 0.36 92 997.5
20260503215525 21 262 16.1 35.4 0.00 0.41 0.36 93 997.2
20260503213526 21 287 17.7 33.8 0.00 0.41 0.36 93 997.3
20260503211524 21 240 14.5 35.4 0.03 0.41 0.36 93 997.5
20260503205525 21 218 16.1 40.2 0.08 0.41 0.36 93 997.3
20260503203525 21 236 29.0 45.1 0.08 0.41 0.36 93 997.3
20260503201524 21 301 14.5 37.0 0.05 0.38 0.30 91 997.2
20260503195524 21 240 19.3 41.8 0.00 0.30 0.25 91 997.6
20260503193525 21 247 19.3 37.0 0.00 0.30 0.25 92 997.8
20260503191525 20 246 14.5 24.1 0.00 0.30 0.25 92 997.5